Regional Weather Roundup
Issued by NWS

Home | Current Version | Previous Version | Graphics & Text | Print | Product List | Glossary On
Versions: 1 2 3 4 5 6 7 8 9 10 11 12 13 14 15 16 17 18 19 20 21 22 23 24 25 26 27 28 29 30 31 32 33 34 35 36 37 38 39 40 41 42 43 44 45 46 47 48 49 50
000
ASUS43 KTOP 251959
RWRKS

WEATHER ROUNDUP FOR KANSAS
NATIONAL WEATHER SERVICE GOODLAND KS
300 PM CDT THU MAY 25 2017

NOTE:  "FAIR" INDICATES FEW OR NO CLOUDS BELOW 12,000 FEET WITH NO
SIGNIFICANT WEATHER AND/OR OBSTRUCTIONS TO VISIBILITY.

KSZ001>006-013>018-027>032-041>047-252100-
NORTHWEST KANSAS

CITY           SKY/WX    TMP DP  RH WIND       PRES   REMARKS
GOODLAND       SUNNY     84  51  31 E10       29.52S
HAYS           SUNNY     77  57  50 S16G22    29.49S
HILL CITY      SUNNY     81  54  39 S7        29.48F
RUSSELL        SUNNY     75  56  51 S20G30    29.48F
$$

KSZ061>065-074>080-084>089-252100-
SOUTHWEST KANSAS

CITY           SKY/WX    TMP DP  RH WIND       PRES   REMARKS
DODGE CITY     SUNNY     80  56  43 S17       29.50F
ELKHART          N/A     90  42  18 SW14        N/A
GARDEN CITY    SUNNY     86  50  28 S12       29.48F
GREAT BEND     SUNNY     75  57  53 S18G26    29.50F
LIBERAL        CLOUDY    87  53  31 SE6       29.51F
$$

KSZ066>073-081>083-090>101-252100-
SOUTHEAST KANSAS

CITY           SKY/WX    TMP DP  RH WIND       PRES   REMARKS
CHANUTE        SUNNY     75  53  46 SE17G28   29.61F
COFFEYVILLE    CLOUDY    76  57  51 S15G25    29.60F
HUTCHINSON     SUNNY     79  55  43 S21G28    29.52F
MEDICINE LODGE   N/A     82  54  37 S16       29.50F
NEWTON         SUNNY     77  55  46 S20       29.55F
PARSONS        CLOUDY    75  53  46 S12G21    29.61F
WICHITA INTL   MOSUNNY   79  56  45 S18G25    29.53F
WICHITA JABRA  LGT RAIN  78  56  46 S17G26    29.54S
$$

KSZ007>012-019>026-033>040-048>060-102>105-252100-
NORTHEAST KANSAS

CITY           SKY/WX    TMP DP  RH WIND       PRES   REMARKS
CONCORDIA      MOSUNNY   75  55  49 SE20G28   29.51F
EMPORIA        MOSUNNY   75  53  46 S18G25    29.57F
LAWRENCE       SUNNY     78  53  41 SE15G29   29.60F
MANHATTAN      PTSUNNY   78  54  43 S16       29.55F
OLATHE IND     SUNNY     75  52  44 S16       29.63F
OLATHE EXE     SUNNY     74  54  49 S14       29.64F
SALINA         SUNNY     80  55  42 S16G25    29.53F
TOPEKA BILLARD SUNNY     77  54  44 SE18G24   29.59F
TOPEKA FORBES  SUNNY     78  53  41 SE16      29.59F
$$




USA.gov is the U.S. government's official web portal to all federal, state and local government web resources and services.